When you browse on this site, cookies collect data to enhance your experience and personalize the content and advertising you see.
Visit our Privacy Policy to learn more. By continuing to use the site, you agree to this use of cookies and data.
  • In Hungary
  • List of Countries
  • For 7 days
  • Water Temperature
  • Weather Map
  • News
  • Weather Widgets
  • user-avatar
    Login

    Hourly Weather Vavilovka

    Today, 24 January, Friday

    Time Temperature Precipitation Wind Pressure Humidity
    00:00 -6°C° 0.2 mm 6 mps 740 mmHg 91%
    01:00 -6°C° 0.2 mm 6 mps 740 mmHg 91%
    02:00 -6°C° 0.2 mm 6 mps 740 mmHg 92%
    03:00 -6°C° 0.1 mm 6 mps 740 mmHg 91%
    04:00 -6°C° 0.1 mm 6 mps 740 mmHg 91%
    05:00 -6°C° 0.1 mm 6 mps 740 mmHg 90%
    06:00 -6°C° 0.1 mm 5 mps 740 mmHg 91%
    07:00 -6°C° 0.1 mm 5 mps 740 mmHg 93%
    08:00 -5°C° 0.1 mm 5 mps 740 mmHg 94%
    09:00 -5°C° 0.2 mm 5 mps 740 mmHg 93%
    10:00 -4°C° 0.2 mm 5 mps 740 mmHg 92%
    11:00 -2°C° 0.2 mm 5 mps 740 mmHg 91%
    12:00 -2°C° 0.1 mm 5 mps 739 mmHg 92%
    13:00 -2°C° 0.1 mm 5 mps 739 mmHg 92%
    14:00 -2°C° 0.1 mm 5 mps 739 mmHg 93%
    15:00 -4°C° 0.5 mm 5 mps 739 mmHg 93%
    16:00 -4°C° 0.5 mm 5 mps 739 mmHg 94%
    17:00 -4°C° 0.5 mm 5 mps 739 mmHg 95%
    18:00 -4°C° 0.2 mm 5 mps 739 mmHg 95%
    19:00 -3°C° 0.2 mm 4 mps 739 mmHg 94%
    20:00 -3°C° 0.2 mm 4 mps 739 mmHg 94%
    21:00 -3°C° 0.1 mm 4 mps 740 mmHg 94%
    22:00 -4°C° 0.1 mm 4 mps 740 mmHg 95%
    23:00 -4°C° 0.1 mm 3 mps 741 mmHg 95%

    Tomorrow, 25 January, Saturday

    Time Temperature Precipitation Wind Pressure Humidity
    00:00 -4°C° 0.1 mm 3 mps 741 mmHg 95%
    01:00 -4°C° 0.1 mm 2 mps 741 mmHg 96%
    02:00 -3°C° 0.1 mm 1 mps 741 mmHg 96%
    03:00 -5°C° 0.1 mm 2 mps 741 mmHg 96%
    04:00 -5°C° 0.1 mm 2 mps 741 mmHg 97%
    05:00 -4°C° 0.1 mm 2 mps 741 mmHg 97%
    06:00 -4°C° 0.3 mm 2 mps 740 mmHg 97%
    07:00 -4°C° 0.3 mm 2 mps 740 mmHg 97%
    08:00 -4°C° 0.3 mm 2 mps 739 mmHg 97%
    09:00 -3°C° 0.5 mm 2 mps 739 mmHg 97%
    10:00 -3°C° 0.5 mm 2 mps 739 mmHg 96%
    11:00 -4°C° 0.5 mm 3 mps 738 mmHg 96%
    12:00 -4°C° 0.3 mm 3 mps 738 mmHg 96%
    13:00 -4°C° 0.3 mm 3 mps 738 mmHg 96%
    14:00 -4°C° 0.3 mm 3 mps 738 mmHg 96%
    15:00 -4°C° 0.4 mm 3 mps 739 mmHg 95%
    16:00 -5°C° 0.4 mm 3 mps 739 mmHg 95%
    17:00 -5°C° 0.4 mm 3 mps 740 mmHg 95%
    18:00 -7°C° 0.1 mm 3 mps 741 mmHg 94%
    19:00 -8°C° 0.1 mm 3 mps 741 mmHg 93%
    20:00 -9°C° 0.1 mm 3 mps 742 mmHg 92%
    21:00 -12°C° 0 mm 3 mps 743 mmHg 91%
    22:00 -14°C° 0 mm 4 mps 743 mmHg 90%
    23:00 -16°C° 0 mm 4 mps 744 mmHg 89%

    Day after tomorrow, 26 January, Sunday

    Time Temperature Precipitation Wind Pressure Humidity
    00:00 -17°C° 0 mm 4 mps 745 mmHg 90%
    01:00 -18°C° 0 mm 4 mps 745 mmHg 91%
    02:00 -18°C° 0 mm 3 mps 746 mmHg 91%
    03:00 -19°C° 0 mm 3 mps 746 mmHg 92%
    04:00 -19°C° 0 mm 3 mps 746 mmHg 92%
    05:00 -21°C° 0 mm 3 mps 747 mmHg 93%
    06:00 -21°C° 0 mm 3 mps 747 mmHg 93%
    07:00 -21°C° 0 mm 3 mps 748 mmHg 94%
    08:00 -21°C° 0 mm 3 mps 748 mmHg 94%
    09:00 -20°C° 0 mm 4 mps 748 mmHg 92%
    10:00 -19°C° 0 mm 4 mps 749 mmHg 91%
    11:00 -17°C° 0 mm 4 mps 749 mmHg 89%
    12:00 -17°C° 0 mm 4 mps 749 mmHg 88%
    13:00 -17°C° 0 mm 4 mps 749 mmHg 88%
    14:00 -17°C° 0 mm 4 mps 749 mmHg 87%
    15:00 -17°C° 0 mm 4 mps 749 mmHg 88%
    16:00 -17°C° 0 mm 4 mps 749 mmHg 88%
    17:00 -17°C° 0 mm 4 mps 749 mmHg 89%
    18:00 -17°C° 0.1 mm 4 mps 749 mmHg 89%
    19:00 -17°C° 0.1 mm 4 mps 749 mmHg 90%
    20:00 -17°C° 0.1 mm 4 mps 749 mmHg 90%
    21:00 -17°C° 0 mm 4 mps 749 mmHg 91%
    22:00 -17°C° 0 mm 4 mps 749 mmHg 91%
    23:00 -18°C° 0 mm 4 mps 749 mmHg 91%

    27 January, Monday

    Time Temperature Precipitation Wind Pressure Humidity
    00:00 -17°C° 0 mm 4 mps 749 mmHg 91%
    01:00 -17°C° 0 mm 4 mps 748 mmHg 92%
    02:00 -16°C° 0 mm 4 mps 748 mmHg 92%
    03:00 -16°C° 0 mm 4 mps 748 mmHg 91%
    04:00 -15°C° 0 mm 5 mps 747 mmHg 91%
    05:00 -15°C° 0 mm 5 mps 747 mmHg 90%
    06:00 -15°C° 0 mm 5 mps 746 mmHg 89%
    07:00 -14°C° 0 mm 5 mps 746 mmHg 89%
    08:00 -15°C° 0 mm 6 mps 745 mmHg 88%
    09:00 -15°C° 0.1 mm 6 mps 745 mmHg 89%
    10:00 -14°C° 0.1 mm 6 mps 744 mmHg 90%
    11:00 -14°C° 0.1 mm 6 mps 744 mmHg 91%
    12:00 -14°C° 0.1 mm 6 mps 743 mmHg 91%
    13:00 -12°C° 0.1 mm 6 mps 743 mmHg 90%
    14:00 -12°C° 0.1 mm 6 mps 742 mmHg 89%
    15:00 -12°C° 0.1 mm 6 mps 742 mmHg 90%
    16:00 -12°C° 0.1 mm 6 mps 741 mmHg 90%
    17:00 -11°C° 0.1 mm 5 mps 740 mmHg 91%
    18:00 -10°C° 0.2 mm 6 mps 740 mmHg 91%
    19:00 -9°C° 0.2 mm 6 mps 739 mmHg 91%
    20:00 -8°C° 0.2 mm 6 mps 739 mmHg 92%
    21:00 -8°C° 0.2 mm 6 mps 739 mmHg 91%
    22:00 -8°C° 0.2 mm 6 mps 738 mmHg 90%
    23:00 -6°C° 0.2 mm 6 mps 738 mmHg 90%

    28 January, Tuesday

    Time Temperature Precipitation Wind Pressure Humidity
    00:00 -8°C° 0.1 mm 6 mps 739 mmHg 89%
    01:00 -8°C° 0.1 mm 5 mps 739 mmHg 89%
    02:00 -10°C° 0.1 mm 5 mps 739 mmHg 89%
    03:00 -11°C° 0.1 mm 5 mps 740 mmHg 89%
    04:00 -12°C° 0.1 mm 5 mps 740 mmHg 89%
    05:00 -12°C° 0.1 mm 6 mps 741 mmHg 88%
    06:00 -13°C° 0 mm 5 mps 742 mmHg 88%
    07:00 -14°C° 0 mm 5 mps 742 mmHg 88%
    08:00 -15°C° 0 mm 5 mps 743 mmHg 89%
    09:00 -15°C° 0 mm 5 mps 743 mmHg 89%
    10:00 -15°C° 0 mm 5 mps 744 mmHg 89%
    11:00 -15°C° 0 mm 5 mps 745 mmHg 89%
    12:00 -15°C° 0 mm 5 mps 745 mmHg 89%
    13:00 -17°C° 0 mm 5 mps 746 mmHg 89%
    14:00 -17°C° 0 mm 5 mps 746 mmHg 89%
    15:00 -17°C° 0.1 mm 5 mps 746 mmHg 90%
    16:00 -18°C° 0.1 mm 5 mps 747 mmHg 90%
    17:00 -19°C° 0.1 mm 5 mps 747 mmHg 91%
    18:00 -19°C° 0 mm 5 mps 748 mmHg 91%
    19:00 -19°C° 0 mm 4 mps 748 mmHg 91%
    20:00 -19°C° 0 mm 4 mps 749 mmHg 91%
    21:00 -19°C° 0 mm 4 mps 749 mmHg 91%
    22:00 -19°C° 0 mm 4 mps 749 mmHg 91%
    23:00 -19°C° 0 mm 4 mps 750 mmHg 92%

    29 January, Wednesday

    Time Temperature Precipitation Wind Pressure Humidity
    00:00 -19°C° 0.1 mm 4 mps 750 mmHg 92%
    01:00 -20°C° 0.1 mm 4 mps 751 mmHg 92%
    02:00 -20°C° 0.1 mm 4 mps 751 mmHg 92%
    03:00 -22°C° 0 mm 4 mps 752 mmHg 92%
    04:00 -23°C° 0 mm 4 mps 752 mmHg 92%
    05:00 -24°C° 0 mm 4 mps 753 mmHg 93%
    06:00 -25°C° 0 mm 4 mps 753 mmHg 93%
    07:00 -25°C° 0 mm 3 mps 754 mmHg 94%
    08:00 -26°C° 0 mm 3 mps 754 mmHg 94%
    09:00 -25°C° 0 mm 3 mps 755 mmHg 94%
    10:00 -25°C° 0 mm 3 mps 755 mmHg 94%
    11:00 -24°C° 0 mm 3 mps 756 mmHg 93%
    12:00 -24°C° 0 mm 3 mps 756 mmHg 93%
    13:00 -24°C° 0 mm 3 mps 757 mmHg 93%
    14:00 -24°C° 0 mm 3 mps 757 mmHg 92%
    15:00 -24°C° 0 mm 3 mps 758 mmHg 93%
    16:00 -25°C° 0 mm 3 mps 758 mmHg 94%
    17:00 -26°C° 0 mm 3 mps 758 mmHg 95%
    18:00 -26°C° 0 mm 2 mps 759 mmHg 96%
    19:00 -27°C° 0 mm 2 mps 759 mmHg 96%
    20:00 -27°C° 0 mm 2 mps 760 mmHg 97%
    21:00 -28°C° 0 mm 2 mps 760 mmHg 97%
    22:00 -28°C° 0 mm 2 mps 760 mmHg 98%
    23:00 -29°C° 0 mm 2 mps 761 mmHg 98%
    Show more